User: anonymous   Login
Location: Unspecified
(0.0000°N, 0.0000°E)
Time: 00:15:58
(UTC+00:00)
Language:

Courier 1B Rocket - Orbit

View from above orbital plane
View from above orbital plane
View from above satellite
View from above satellite

Ground track
Ground track

The orbit data is extracted from the following two-line orbital elements,

1 00059U 60013B   15185.37204787  .00000082  00000-0 -12437-4 0  9994
2 00059 028.2476 155.8578 0189254 214.1547 144.6693 13.52924280701790
Epoch (UTC): 04 July 2015 08:55:44
Eccentricity: 0.0189254
inclination: 28.2476°
perigee height: 921 km
apogee height: 1202 km
right ascension of ascending node: 155.8578°
argument of perigee: 214.1547°
revolutions per day: 13.52924280
mean anomaly at epoch: 144.6693°
orbit number at epoch: 70179

The dashed part of the orbit path shows where the satellite is in the earth's shadow,  

DLR